Location: Chattahoochee River National Recreation Area
(34.0022°N, 84.2416°W)
Time: 06:59:07
(UTC-04:00)

Daily predictions for brighter satellites

Satellite Brightness Start Highest point End
(mag) Time Altitude Azimuth Time Altitude Azimuth Time Altitude Azimuth
OAO 2 Rocket 3.4 20:22:48 10° W 20:27:47 79° N 20:32:50 10° E
Meteor 1-12 Rocket 4.5 20:28:08 10° SSE 20:33:37 50° E 20:39:14 10° NNE
Okean 2 3.4 20:29:47 10° N 20:33:57 79° E 20:38:05 10° S
METEOR-M 4.1 20:30:31 10° SSE 20:35:50 75° ENE 20:41:11 10° N
Cosmos 1346 Rocket 2.7 20:34:42 10° N 20:38:41 76° E 20:42:41 10° SSE
Helios 1B rocket 2.9 20:35:11 10° N 20:39:17 67° WNW 20:43:20 10° SSW
FREGAT/IRIS 3.7 20:37:12 10° S 20:40:15 51° W 20:43:19 10° NNW
Cosmos 1697 Rocket 2.7 20:38:51 10° S 20:44:22 58° ESE 20:49:54 10° NNE
Resurs 1-3 3.6 20:41:31 10° SSE 20:45:53 73° ENE 20:50:15 10° N
Tiangong 1 3.0 20:44:36 10° NW 20:47:04 21° NNE 20:49:30 10° ENE
Cosmos 1743 4.3 20:45:15 10° SE 20:47:42 16° E 20:50:12 10° NE
Cosmos 2123 Rocket 3.9 20:44:49 10° N 20:51:00 79° E 20:57:11 10° S
HJ-1C 4.0 20:48:50 10° S 20:52:03 56° W 20:55:19 10° NNW
ATLAS 3B CENTAUR R/B 2.3 20:51:44 10° SW 20:52:54 13° SSW 20:53:52 10° S
Cosmos 1898 Rocket 4.0 20:52:29 10° N 20:57:28 41° ENE 21:01:43 14° SE
SL-16 R/B 3.9 21:00:04 13° E 21:00:04 13° E 21:01:27 10° ENE
Cosmos 468 Rocket 3.9 20:57:53 10° S 21:02:59 78° ESE 21:08:07 10° NNE
Cosmos 841 Rocket 4.1 21:02:48 10° SSE 21:07:24 32° E 21:12:01 10° NE
Cosmos 1980 Rocket 2.3 21:03:19 10° S 21:08:49 55° ESE 21:14:22 10° NNE
DELTA 2 R/B (1) 3.5 21:05:20 10° WNW 21:10:56 90° NNE 21:14:35 22° ESE
Helios 1A 4.4 21:08:03 10° SSW 21:11:56 38° W 21:15:52 10° NNW
Resurs 01 Rocket 3.2 21:11:03 10° SSW 21:15:08 36° W 21:19:14 10° NNW
RESURS DK-1 2.9 21:12:48 10° N 21:16:42 39° ENE 21:18:10 28° ESE
H-2A R/B 2.7 21:13:02 11° SSE 21:16:44 79° ENE 21:20:40 10° N
Cosmos 1814 Rocket 4.0 21:11:32 10° SSW 21:16:52 88° ESE 21:22:13 10° NNE
CZ-4B DEB 4.5 21:15:26 16° SSE 21:18:15 76° ENE 21:21:53 10° N
FENGYUN 3A 3.6 21:13:22 10° SSE 21:18:42 89° WSW 21:24:05 10° NNW
Cosmos 1153 Rocket 4.5 21:13:17 10° S 21:19:28 86° W 21:25:39 10° N
CZ-4B DEB 4.0 21:18:43 10° S 21:21:51 44° W 21:25:01 10° NNW
Cosmos 1726 Rocket 4.3 21:24:43 30° E 21:24:47 30° E 21:28:37 10° NNE
Cosmos 858 Rocket 4.4 21:32:08 10° NNW 21:37:27 90° E 21:40:37 25° SSE
Cosmos 1802 Rocket 4.0 21:31:10 10° S 21:37:27 64° E 21:43:49 10° NNE
Cosmos 1500 4.2 21:35:03 10° SSW 21:38:40 46° W 21:42:18 10° N
Iridium 4 Rocket 3.5 21:34:57 10° N 21:39:42 67° W 21:44:03 10° S
Lacrosse 5 1.8 21:35:12 10° NW 21:40:17 75° NE 21:41:56 43° SE
Cosmos 2016 Rocket 4.0 21:37:16 15° SSE 21:42:16 57° E 21:48:19 10° NNE
Cosmos 2322 Rocket 2.5 21:43:34 39° ESE 21:43:40 39° ESE 21:48:51 10° NE
Cosmos 1825 Rocket 3.6 21:39:26 10° N 21:43:46 56° E 21:44:12 53° ESE
Cosmos 2227 Rocket 4.1 21:39:14 10° NW 21:43:57 28° WSW 21:48:38 10° SSW
SJ-11-01 4.2 21:43:53 45° SE 21:45:09 64° ENE 21:49:47 10° N
SPOT 5 4.1 21:47:47 26° ENE 21:47:47 26° ENE 21:51:11 10° NNE
OTV 4 3.2 21:46:29 10° WSW 21:47:34 12° SW 21:47:34 12° SW
Cosmos 1340 3.1 21:44:29 10° N 21:47:32 45° NE 21:47:32 45° NE
SWAS 4.3 21:44:34 10° SSW 21:48:52 75° ESE 21:53:11 10° NNE
Lacrosse 5 rocket 3.5 21:46:43 10° W 21:49:04 16° WSW 21:50:50 12° SSW
Cosmos 2084 4.4 21:46:17 10° NW 21:50:14 43° WSW 21:51:53 29° SSW
Envisat 3.2 21:49:38 47° E 21:50:18 50° ENE 21:55:12 10° N
H-2A R/B 3.3 21:55:01 26° NE 21:55:01 26° NE 21:57:27 10° N
Cosmos 2173 Rocket 4.1 21:47:39 10° S 21:54:02 81° W 22:00:23 10° N
USA 186 3.7 21:53:34 20° SW 21:54:38 25° W 21:57:05 10° NW
Cosmos 1937 Rocket 3.6 21:50:39 10° NNW 21:55:57 77° WSW 21:58:05 37° S
Cosmos 1953 Rocket 3.8 21:51:41 10° N 21:55:42 54° ENE 21:55:42 54° ENE
Meteor 2-9 Rocket 4.2 21:57:29 53° ESE 21:57:53 54° E 22:03:09 10° NNE
Cosmos 2297 Rocket 3.9 21:53:51 10° NW 21:58:41 30° WSW 22:03:29 10° SSW
Cosmos 1375 Rocket 4.5 21:52:21 10° SSW 21:58:49 66° ESE 22:05:21 10° NNE
Nimbus 7 Rocket 4.4 21:53:29 10° NNE 21:59:28 57° ESE 22:01:08 44° SSE
ALOS 4.3 21:58:18 10° SSW 22:02:11 26° W 22:06:06 10° NW
CZ-4 DEB 4.2 22:03:21 35° NNW 22:03:21 35° NNW 22:05:21 10° NNW
Meteor 1-15 Rocket 4.4 22:02:11 53° ESE 22:02:32 54° E 22:08:13 10° NNE
Cosmos 2360 4.4 21:57:39 10° SSW 22:03:20 70° WNW 22:09:04 10° NNE
Cosmos 990 Rocket 3.9 21:58:10 10° NNW 22:03:27 90° NE 22:04:27 59° SSE
Cosmos 967 Rocket 4.4 22:00:49 10° NNW 22:07:10 75° ENE 22:08:26 57° SE
ERS-1 Rocket 3.0 22:08:47 56° S 22:09:49 78° WSW 22:14:52 10° NNW
Cosmos 1864 Rocket 4.3 22:10:22 60° SE 22:11:03 64° E 22:17:05 10° NNE
Cosmos 2227 4.0 22:06:04 10° NNW 22:11:49 78° ENE 22:12:25 70° SE
OAO 2 Rocket 3.2 22:07:38 10° W 22:12:34 79° SSW 22:12:34 79° SSW
Meteor 1-21 4.2 22:08:09 10° N 22:13:58 85° W 22:15:23 54° S
Cosmos 1758 Rocket 4.1 22:10:00 10° N 22:13:13 49° N 22:13:13 49° N
BREEZE-M DEB (TANK) 4.1 22:16:02 10° NNW 22:17:23 24° N 22:17:23 24° N
Cosmos 1939 Rocket 3.7 22:23:17 51° WNW 22:23:17 51° WNW 22:26:44 10° NNW
H-2A R/B 4.3 22:25:29 11° NNE 22:25:29 11° NNE 22:25:49 10° NNE
Tiangong 1 4.0 22:20:44 10° WNW 22:21:38 17° WNW 22:21:38 17° WNW
deb Chang Zheng 4 4.4 22:23:28 10° N 22:26:46 47° NNW 22:26:46 47° NNW
Tsikada Rocket 3.9 22:24:08 10° N 22:30:24 72° ENE 22:30:24 72° ENE
ARGOS 4.3 22:39:04 33° NNE 22:39:04 33° NNE 22:42:16 10° N
Cosmos 2058 Rocket 4.3 22:40:58 40° NW 22:40:58 40° NW 22:44:34 10° N
SL-16 R/B 2.5 22:41:42 62° W 22:42:12 65° WNW 22:47:51 10° NNE
Cosmos 1725 Rocket 4.2 22:42:59 54° SW 22:44:09 65° W 22:50:22 10° N
Cosmos 1125 Rocket 4.3 22:40:37 10° NNW 22:44:16 47° NNW 22:44:16 47° NNW
ASTEX 1 4.4 22:47:49 10° N 22:51:52 44° NW 22:51:52 44° NW
Milstar 3 Cent rocket 4.3 22:59:35 10° W 23:17:49 50° SSW 23:18:32 50° SSW
Cosmos 2263 Rocket 3.7 23:15:30 10° NNW 23:18:16 31° NNW 23:18:16 31° NNW
Cosmos 2322 Rocket 4.2 23:25:05 17° W 23:27:47 24° WNW 23:32:17 10° N
